QPF
0.01 0.00 0.01 0.03 0.01 0.00 0.00 0.05 0.02 0.03 0.00 0.00 0.01 0.03 0.01 0.02 0.00 0.00 0.00 0.00 0.04 0.10 0.02 0.15 0.09 0.05 0.15 0.16 0.05 0.01 0.01 0.01 0.00 0.00 0.00 0.00 0.00 0.00 0.00 0.00 0.00 0.00 0.00
0.02 0.02 0.06 0.09 0.11 0.07 0.07 0.09 0.10 0.02 0.02 0.00 0.01 0.02 0.01 0.02 0.01 0.00 0.02 0.04 0.00 0.04 0.03 0.06 0.19 0.03 0.03 0.03 0.09 0.03 0.00 0.00 0.00 0.00 0.00 0.00 0.00 0.00 0.00 0.00 0.00 0.00 0.00
0.02 0.01 0.07 0.17 0.20 0.15 0.10 0.11 0.11 0.01 0.00 0.00 0.00 0.00 0.00 0.01 0.05 0.03 0.05 0.04 0.04 0.09 0.11 0.01 0.04 0.00 0.00 0.01 0.04 0.05 0.00 0.00 0.00 0.00 0.00 0.00 0.00 0.00 0.00 0.00 0.00 0.00 0.00
0.04 0.00 0.10 0.17 0.21 0.19 0.11 0.11 0.06 0.09 0.03 0.00 0.00 0.00 0.03 0.11 0.12 0.08 0.09 0.02 0.03 0.13 0.06 0.01 0.01 0.00 0.00 0.07 0.07 0.03 0.01 0.02 0.02 0.00 0.00 0.00 0.00 0.00 0.00 0.00 0.00 0.00 0.00
0.04 0.07 0.10 0.18 0.22 0.23 0.21 0.22 0.18 0.17 0.13 0.04 0.02 0.02 0.03 0.09 0.09 0.07 0.06 0.03 0.01 0.07 0.03 0.04 0.02 0.00 0.00 0.00 0.00 0.01 0.03 0.00 0.00 0.00 0.00 0.00 0.00 0.00 0.00 0.00 0.00 0.00 0.00
0.03 0.07 0.11 0.12 0.15 0.24 0.25 0.28 0.31 0.22 0.27 0.24 0.12 0.06 0.14 0.07 0.11 0.24 0.27 0.04 0.00 0.01 0.00 0.01 0.00 0.00 0.00 0.00 0.00 0.00 0.00 0.00 0.00 0.00 0.00 0.00 0.00 0.00 0.00 0.00 0.00 0.00 0.00
0.05 0.07 0.09 0.05 0.08 0.15 0.21 0.24 0.29 0.30 0.36 0.27 0.34 0.45 0.32 0.17 0.13 0.15 0.20 0.16 0.01 0.00 0.00 0.00 0.00 0.00 0.00 0.00 0.00 0.00 0.00 0.00 0.00 0.00 0.00 0.00 0.00 0.00 0.00 0.00 0.00 0.00 0.00
0.04 0.07 0.15 0.16 0.04 0.06 0.11 0.25 0.28 0.34 0.29 0.19 0.29 0.31 0.18 0.09 0.18 0.19 0.19 0.07 0.00 0.00 0.03 0.04 0.01 0.01 0.00 0.00 0.00 0.00 0.00 0.00 0.00 0.00 0.00 0.00 0.00 0.00 0.00 0.00 0.00 0.00 0.00
0.01 0.03 0.03 0.01 0.01 0.01 0.05 0.10 0.15 0.17 0.17 0.28 0.29 0.30 0.24 0.24 0.23 0.27 0.27 0.20 0.19 0.18 0.20 0.10 0.04 0.01 0.00 0.00 0.00 0.00 0.00 0.00 0.00 0.00 0.00 0.00 0.00 0.00 0.00 0.00 0.00 0.00 0.00
0.00 0.00 0.00 0.00 0.00 0.00 0.00 0.01 0.02 0.04 0.11 0.21 0.20 0.17 0.14 0.15 0.16 0.23 0.19 0.27 0.30 0.19 0.14 0.12 0.07 0.01 0.02 0.00 0.00 0.00 0.00 0.00 0.00 0.00 0.00 0.00 0.00 0.00 0.00 0.00 0.00 0.00 0.00
0.00 0.00 0.00 0.00 0.00 0.00 0.00 0.00 0.01 0.02 0.04 0.05 0.05 0.05 0.04 0.01 0.03 0.03 0.03 0.13 0.16 0.12 0.08 0.07 0.09 0.09 0.05 0.00 0.00 0.00 0.00 0.00 0.00 0.00 0.00 0.00 0.00 0.00 0.00 0.00 0.00 0.00 0.00
0.00 0.00 0.00 0.00 0.00 0.00 0.00 0.00 0.00 0.01 0.01 0.00 0.00 0.00 0.02 0.05 0.03 0.03 0.00 0.01 0.06 0.05 0.01 0.02 0.01 0.01 0.01 0.01 0.00 0.00 0.00 0.00 0.00 0.00 0.00 0.00 0.00 0.00 0.00 0.00 0.00 0.00 0.00
0.00 0.00 0.00 0.00 0.00 0.00 0.00 0.00 0.00 0.01 0.01 0.01 0.00 0.00 0.00 0.00 0.00 0.00 0.00 0.00 0.00 0.00 0.00 0.00 0.02 0.02 0.01 0.00 0.00 0.00 0.00 0.00 0.00 0.00 0.00 0.00 0.00 0.00 0.00 0.00 0.00 0.00 0.00
0.00 0.00 0.00 0.00 0.00 0.00 0.00 0.00 0.00 0.00 0.01 0.01 0.00 0.00 0.00 0.00 0.00 0.00 0.03 0.12 0.14 0.08 0.07 0.04 0.03 0.03 0.03 0.02 0.01 0.00 0.00 0.00 0.00 0.00 0.00 0.00 0.00 0.00 0.00 0.00 0.00 0.00 0.00
0.00 0.00 0.00 0.00 0.00 0.00 0.00 0.00 0.00 0.00 0.00 0.00 0.00 0.00 0.00 0.00 0.00 0.00 0.00 0.03 0.10 0.11 0.10 0.07 0.06 0.06 0.04 0.02 0.00 0.00 0.00 0.00 0.00 0.00 0.00 0.00 0.00 0.00 0.00 0.00 0.00 0.00 0.00
0.00 0.00 0.00 0.00 0.00 0.00 0.00 0.00 0.00 0.00 0.00 0.00 0.00 0.00 0.00 0.00 0.00 0.00 0.00 0.03 0.11 0.16 0.14 0.09 0.07 0.04 0.02 0.01 0.00 0.00 0.00 0.00 0.00 0.00 0.00 0.00 0.00 0.00 0.00 0.00 0.00 0.00 0.00
0.00 0.00 0.00 0.00 0.00 0.00 0.00 0.00 0.00 0.00 0.00 0.00 0.00 0.00 0.00 0.00 0.00 0.00 0.00 0.00 0.03 0.06 0.05 0.06 0.07 0.06 0.02 0.00 0.00 0.00 0.00 0.00 0.00 0.00 0.00 0.00 0.00 0.00 0.00 0.00 0.00 0.00 0.00
0.00 0.00 0.00 0.00 0.00 0.00 0.00 0.00 0.00 0.00 0.00 0.00 0.00 0.00 0.00 0.00 0.00 0.00 0.00 0.00 0.01 0.01 0.01 0.02 0.03 0.03 0.01 0.00 0.00 0.00 0.00 0.00 0.00 0.00 0.00 0.00 0.00 0.00 0.00 0.00 0.00 0.00 0.00
0.00 0.00 0.00 0.00 0.00 0.00 0.00 0.00 0.00 0.00 0.00 0.00 0.00 0.00 0.00 0.00 0.00 0.00 0.00 0.00 0.00 0.01 0.01 0.01 0.01 0.00 0.00 0.00 0.00 0.00 0.00 0.00 0.00 0.00 0.00 0.00 0.00 0.00 0.00 0.00 0.00 0.00 0.00
0.00 0.00 0.00 0.00 0.00 0.00 0.00 0.00 0.00 0.00 0.00 0.00 0.00 0.00 0.00 0.00 0.00 0.00 0.00 0.00 0.00 0.00 0.01 0.01 0.00 0.00 0.00 0.01 0.01 0.00 0.00 0.00 0.00 0.00 0.00 0.00 0.00 0.00 0.00 0.00 0.00 0.00 0.00
0.00 0.00 0.00 0.00 0.00 0.00 0.00 0.00 0.00 0.00 0.00 0.00 0.00 0.00 0.00 0.00 0.00 0.00 0.00 0.00 0.00 0.00 0.00 0.00 0.00 0.00 0.01 0.02 0.02 0.01 0.00 0.00 0.00 0.00 0.00 0.00 0.00 0.00 0.00 0.00 0.00 0.00 0.00
0.00 0.00 0.00 0.00 0.00 0.00 0.00 0.00 0.00 0.00 0.00 0.00 0.00 0.00 0.00 0.00 0.00 0.01 0.00 0.00 0.00 0.00 0.00 0.00 0.00 0.00 0.02 0.03 0.02 0.01 0.00 0.00 0.00 0.00 0.00 0.00 0.00 0.00 0.00 0.00 0.00 0.00 0.00
0.00 0.00 0.00 0.00 0.00 0.00 0.00 0.00 0.00 0.00 0.00 0.00 0.00 0.00 0.00 0.00 0.00 0.00 0.00 0.00 0.00 0.00 0.00 0.00 0.00 0.00 0.01 0.00 0.00 0.00 0.00 0.00 0.00 0.00 0.00 0.00 0.00 0.00 0.00 0.00 0.00 0.00 0.00
0.00 0.00 0.00 0.00 0.00 0.01 0.00 0.00 0.00 0.00 0.00 0.00 0.00 0.00 0.01 0.06 0.06 0.04 0.01 0.00 0.00 0.00 0.00 0.00 0.00 0.00 0.01 0.01 0.01 0.00 0.00 0.00 0.00 0.00 0.00 0.00 0.00 0.00 0.00 0.00 0.00 0.00 0.00
0.00 0.00 0.00 0.00 0.00 0.01 0.01 0.00 0.00 0.00 0.00 0.00 0.00 0.01 0.04 0.08 0.09 0.05 0.01 0.00 0.00 0.00 0.00 0.00 0.00 0.00 0.00 0.00 0.00 0.00 0.00 0.00 0.00 0.00 0.00 0.00 0.00 0.00 0.00 0.00 0.00 0.00 0.00
0.00 0.00 0.00 0.00 0.00 0.01 0.00 0.00 0.00 0.00 0.00 0.00 0.00 0.00 0.03 0.06 0.08 0.05 0.02 0.00 0.00 0.00 0.00 0.00 0.00 0.00 0.00 0.00 0.00 0.00 0.00 0.00 0.00 0.00 0.00 0.00 0.00 0.00 0.00 0.00 0.00 0.00 0.00
MSLP
1010.87 1011.40 1011.90 1011.98 1012.35 1012.42 1012.49 1012.59 1012.39 1012.54 1012.73 1013.07 1013.43 1013.60 1013.92 1014.09 1014.27 1014.55 1014.94 1015.11 1015.43 1015.56 1015.70 1015.64 1015.62 1015.71 1015.67 1015.73 1015.96 1016.26 1016.34 1016.52 1016.49 1015.73 1015.47 1015.05 1015.02 1015.04 1015.02 1014.97 1015.01 1015.03 1014.96
1010.77 1010.96 1011.29 1011.90 1011.94 1011.95 1012.05 1012.26 1012.04 1012.21 1012.45 1012.59 1012.92 1013.19 1013.52 1013.87 1014.07 1014.26 1014.71 1014.79 1015.06 1015.18 1015.03 1015.10 1015.22 1015.54 1015.43 1015.48 1015.62 1015.67 1015.66 1015.88 1016.06 1015.79 1015.37 1014.93 1014.73 1014.48 1014.53 1014.63 1014.40 1014.28 1014.33
1010.97 1010.86 1010.65 1010.84 1011.00 1011.20 1011.53 1011.49 1011.60 1011.64 1011.74 1012.03 1012.51 1012.69 1012.93 1013.12 1013.39 1013.67 1013.94 1014.16 1014.37 1014.55 1014.53 1014.60 1014.61 1014.84 1014.86 1015.13 1015.21 1015.29 1015.34 1015.36 1015.49 1015.58 1015.28 1014.95 1014.65 1014.46 1014.30 1014.15 1014.00 1013.73 1013.64
1010.61 1010.44 1010.55 1010.72 1010.93 1011.02 1011.00 1011.26 1010.96 1011.00 1011.23 1011.55 1011.82 1012.13 1012.41 1012.62 1012.94 1013.24 1013.39 1013.53 1013.86 1013.96 1013.96 1013.85 1013.95 1014.26 1014.27 1014.54 1014.80 1014.78 1014.86 1015.01 1015.12 1015.16 1015.04 1014.95 1014.75 1014.47 1014.40 1014.22 1013.86 1013.65 1013.35
1010.18 1010.44 1010.85 1011.00 1011.02 1010.92 1010.83 1010.65 1010.19 1010.47 1010.60 1010.92 1011.21 1011.42 1011.87 1012.30 1012.42 1012.63 1012.98 1013.16 1013.33 1013.52 1013.45 1013.41 1013.54 1013.55 1013.60 1013.86 1014.10 1014.10 1014.33 1014.52 1014.75 1014.84 1014.81 1014.77 1014.54 1014.36 1014.17 1014.17 1014.11 1013.81 1013.37
1010.02 1010.52 1010.48 1010.30 1010.26 1010.45 1010.19 1010.20 1010.09 1010.17 1010.50 1010.53 1010.93 1011.04 1011.24 1011.44 1011.48 1011.76 1012.27 1012.63 1013.04 1013.05 1012.87 1012.97 1013.12 1013.17 1013.25 1013.37 1013.59 1013.57 1013.68 1013.99 1014.22 1014.47 1014.45 1014.45 1014.27 1014.28 1014.24 1014.26 1014.21 1014.06 1013.49
1010.56 1010.60 1010.36 1010.17 1010.08 1009.86 1010.24 1010.44 1010.53 1010.70 1011.03 1010.86 1010.91 1011.08 1011.35 1011.77 1011.39 1011.43 1011.56 1012.14 1012.26 1012.29 1012.18 1012.29 1012.44 1012.60 1012.82 1013.06 1013.30 1013.51 1013.71 1013.67 1013.71 1013.78 1013.93 1014.07 1014.10 1014.00 1014.13 1014.22 1014.33 1014.31 1013.95
1010.84 1010.66 1010.51 1010.36 1010.03 1009.80 1010.42 1010.65 1010.59 1010.66 1010.92 1011.12 1011.73 1011.75 1011.70 1011.16 1011.71 1011.31 1011.27 1011.39 1011.45 1011.34 1011.41 1011.52 1011.83 1012.07 1012.38 1012.62 1013.03 1013.34 1013.59 1013.67 1013.68 1013.77 1013.84 1013.93 1014.11 1014.15 1014.19 1014.23 1014.27 1014.28 1013.99
1011.13 1010.91 1010.75 1010.59 1010.59 1010.59 1010.66 1010.56 1010.28 1010.50 1010.52 1011.08 1011.35 1011.82 1012.11 1011.94 1011.60 1011.14 1011.60 1011.29 1010.87 1010.78 1010.97 1011.16 1011.42 1011.64 1011.78 1012.17 1012.62 1012.97 1013.30 1013.40 1013.47 1013.64 1013.75 1013.80 1013.87 1013.93 1013.88 1014.14 1014.01 1014.02 1013.53
1011.11 1010.92 1010.66 1010.53 1010.38 1010.25 1010.32 1010.22 1010.04 1010.04 1009.83 1009.67 1009.11 1010.20 1010.17 1010.79 1010.84 1010.79 1010.57 1010.57 1010.69 1010.78 1010.97 1010.91 1011.13 1011.19 1011.42 1011.73 1012.12 1012.52 1012.84 1012.82 1013.25 1013.50 1013.64 1013.66 1013.53 1013.37 1013.49 1013.47 1013.49 1013.58 1013.54
1011.03 1010.89 1010.76 1010.60 1010.52 1010.36 1010.24 1010.16 1009.99 1009.61 1009.21 1008.42 1008.20 1008.28 1007.93 1009.09 1008.76 1009.18 1009.67 1009.53 1009.58 1010.35 1010.45 1010.60 1010.74 1011.09 1011.16 1011.38 1011.65 1012.17 1012.34 1012.72 1013.11 1013.33 1013.43 1013.35 1013.20 1013.09 1012.99 1012.88 1012.92 1013.06 1013.04
1011.03 1011.03 1011.00 1010.85 1010.68 1010.43 1010.19 1010.08 1009.81 1009.36 1009.40 1009.05 1008.44 1008.08 1007.18 1007.47 1007.02 1007.07 1008.36 1008.15 1008.60 1009.18 1009.72 1009.49 1009.72 1010.46 1010.89 1011.20 1011.59 1011.90 1012.34 1012.83 1013.16 1013.32 1013.40 1013.22 1012.97 1012.70 1012.58 1012.53 1012.33 1012.28 1012.28
1010.71 1010.79 1010.78 1010.77 1010.67 1010.34 1010.16 1009.89 1009.69 1009.63 1009.76 1009.31 1008.89 1008.50 1007.03 1007.45 1006.86 1006.58 1007.46 1008.06 1008.30 1008.20 1008.56 1008.49 1009.13 1010.41 1011.07 1011.50 1011.59 1011.88 1012.44 1012.89 1012.99 1013.10 1013.16 1013.04 1012.75 1012.57 1012.47 1012.27 1012.04 1011.89 1011.74
1010.67 1010.61 1010.62 1010.60 1010.47 1010.32 1009.86 1009.51 1009.44 1009.09 1008.93 1009.02 1008.90 1008.44 1007.40 1008.51 1008.27 1007.98 1008.00 1008.07 1008.15 1008.47 1008.79 1009.14 1009.54 1010.55 1011.23 1011.33 1011.49 1012.16 1012.53 1012.73 1012.78 1012.94 1012.85 1012.82 1012.73 1012.57 1012.34 1012.26 1012.05 1011.97 1011.79
1010.23 1010.19 1010.12 1010.07 1009.99 1009.82 1009.54 1008.88 1008.56 1008.02 1007.86 1007.74 1007.53 1007.79 1008.08 1008.32 1008.03 1007.67 1007.23 1007.83 1008.37 1008.39 1008.76 1009.38 1010.26 1010.95 1011.32 1011.53 1011.64 1011.69 1012.38 1012.57 1012.60 1012.57 1012.70 1012.77 1012.52 1012.74 1012.23 1012.01 1012.13 1012.09 1011.88
1009.60 1009.59 1009.50 1009.34 1009.13 1009.03 1008.90 1008.37 1007.50 1007.39 1007.33 1007.16 1006.99 1007.02 1007.18 1007.54 1007.47 1007.65 1007.82 1008.02 1007.87 1008.35 1008.59 1009.16 1009.78 1010.16 1010.53 1010.82 1011.15 1011.38 1011.86 1012.28 1012.29 1012.27 1012.37 1012.71 1012.76 1012.61 1012.31 1012.04 1012.25 1012.26 1012.31
1009.00 1008.75 1008.60 1008.49 1008.32 1008.19 1008.08 1007.90 1007.40 1006.29 1006.64 1006.92 1007.00 1007.27 1007.47 1007.28 1007.39 1007.42 1007.38 1007.80 1008.00 1008.30 1008.08 1008.36 1009.20 1009.48 1009.88 1010.01 1010.43 1010.84 1011.28 1011.76 1011.87 1012.08 1012.10 1012.39 1012.59 1012.45 1012.38 1012.21 1012.43 1012.60 1012.58
1008.30 1008.04 1007.88 1007.59 1007.45 1007.23 1007.09 1007.04 1006.94 1006.71 1006.04 1005.91 1006.01 1006.35 1006.48 1006.85 1006.99 1007.13 1007.32 1007.75 1008.29 1008.16 1008.03 1008.21 1008.32 1008.92 1008.94 1009.60 1009.98 1010.17 1010.61 1011.32 1011.59 1011.73 1011.81 1011.92 1012.17 1012.15 1012.40 1012.32 1012.34 1012.63 1012.77
1007.61 1007.26 1007.02 1006.77 1006.54 1006.33 1006.21 1006.15 1006.07 1006.03 1005.86 1005.36 1005.54 1006.12 1006.20 1006.51 1006.98 1007.06 1007.04 1006.93 1007.14 1007.30 1007.49 1007.68 1007.82 1007.86 1008.32 1008.88 1009.30 1009.55 1010.05 1010.60 1010.93 1011.27 1011.48 1011.49 1011.62 1011.75 1012.20 1012.41 1012.45 1012.54 1012.77
1006.78 1006.37 1006.18 1005.96 1005.67 1005.49 1005.31 1005.14 1004.97 1004.96 1004.85 1005.11 1005.16 1005.10 1005.59 1006.34 1006.60 1006.71 1006.47 1006.04 1005.98 1006.24 1006.32 1006.91 1006.96 1007.19 1007.56 1008.14 1008.58 1009.23 1009.83 1010.42 1010.62 1010.88 1011.05 1011.25 1011.36 1011.50 1011.81 1011.96 1011.96 1012.12 1012.38
1005.97 1005.56 1005.32 1005.09 1004.79 1004.60 1004.42 1004.16 1003.94 1003.92 1003.88 1003.86 1003.74 1004.03 1004.20 1004.79 1004.93 1005.06 1005.19 1005.24 1005.07 1005.22 1005.40 1005.74 1006.05 1006.33 1006.76 1007.35 1008.20 1008.76 1008.87 1009.41 1009.88 1010.24 1010.41 1010.68 1010.79 1010.84 1011.18 1011.44 1011.57 1011.66 1011.93
1005.08 1004.71 1004.44 1004.20 1003.98 1003.73 1003.54 1003.33 1003.17 1002.99 1002.86 1002.85 1002.77 1002.79 1003.00 1003.56 1003.61 1003.62 1003.71 1003.88 1004.18 1004.40 1004.64 1004.73 1005.09 1005.58 1005.80 1006.50 1007.22 1007.81 1008.18 1008.72 1009.33 1009.72 1009.88 1009.98 1010.15 1010.17 1010.46 1010.86 1011.05 1011.22 1011.38
1004.72 1004.22 1003.76 1003.43 1003.18 1002.93 1002.73 1002.55 1002.43 1002.22 1002.04 1001.88 1001.90 1002.06 1002.42 1002.50 1002.51 1002.56 1002.67 1002.83 1003.30 1003.63 1003.88 1004.14 1004.56 1004.90 1005.27 1005.74 1006.15 1006.71 1007.08 1007.68 1008.12 1008.84 1009.22 1009.39 1009.58 1009.71 1010.14 1010.56 1010.69 1010.88 1011.25
1004.57 1004.03 1003.35 1002.65 1002.29 1002.05 1001.87 1001.59 1001.48 1001.33 1001.28 1001.08 1000.88 1001.03 1001.25 1001.40 1001.53 1001.65 1001.80 1001.99 1002.38 1002.91 1003.32 1003.63 1003.75 1004.12 1004.59 1005.15 1005.42 1005.94 1006.40 1006.88 1007.29 1007.88 1008.39 1008.80 1009.08 1009.72 1010.10 1010.42 1010.58 1010.76 1011.01
1003.97 1003.30 1002.78 1002.11 1001.55 1001.20 1000.99 1000.82 1000.59 1000.44 1000.29 1000.32 1000.22 1000.11 1000.39 1000.65 1000.83 1000.96 1001.28 1001.60 1002.10 1002.53 1002.77 1002.96 1003.05 1003.42 1003.85 1004.31 1004.87 1005.23 1005.77 1006.41 1006.85 1007.30 1007.77 1008.17 1008.78 1009.34 1009.84 1010.10 1010.40 1010.74 1011.04
1003.32 1002.65 1002.07 1001.59 1001.03 1000.66 1000.37 1000.09 999.89 999.75 999.59 999.39 999.36 999.33 999.48 999.74 1000.13 1000.42 1000.58 1000.91 1001.27 1001.68 1002.09 1002.49 1002.80 1003.13 1003.57 1003.96 1004.44 1005.25 1005.84 1006.39 1006.88 1007.17 1007.59 1008.03 1008.71 1009.35 1009.77 1010.06 1010.43 1010.79 1011.04
Thickness
5761 5758 5757 5757 5757 5762 5762 5764 5768 5769 5768 5764 5760 5761 5761 5762 5763 5762 5761 5760 5758 5758 5757 5758 5758 5759 5760 5760 5757 5753 5752 5750 5746 5757 5761 5765 5764 5762 5761 5760 5759 5761 5762
5765 5764 5761 5759 5760 5761 5762 5763 5767 5765 5765 5763 5760 5760 5759 5757 5758 5758 5755 5757 5755 5756 5758 5759 5758 5756 5757 5758 5756 5756 5755 5755 5751 5750 5757 5761 5763 5765 5764 5764 5764 5764 5764
5765 5766 5768 5766 5764 5762 5761 5764 5765 5765 5765 5764 5760 5759 5759 5759 5759 5759 5758 5757 5757 5757 5759 5758 5759 5757 5757 5757 5758 5756 5757 5758 5756 5753 5754 5759 5762 5764 5765 5766 5766 5766 5766
5768 5768 5765 5763 5762 5761 5760 5760 5763 5764 5764 5764 5763 5760 5758 5758 5758 5757 5758 5758 5757 5757 5759 5760 5761 5759 5759 5758 5756 5757 5757 5757 5756 5755 5756 5756 5758 5762 5761 5760 5762 5765 5766
5767 5763 5757 5759 5758 5757 5756 5758 5764 5763 5762 5763 5762 5762 5759 5755 5757 5756 5754 5754 5755 5755 5757 5759 5759 5760 5760 5761 5760 5761 5760 5758 5755 5753 5753 5754 5757 5758 5758 5758 5757 5759 5762
5765 5759 5761 5762 5760 5755 5756 5756 5756 5757 5755 5757 5755 5756 5757 5757 5759 5758 5754 5751 5748 5751 5755 5757 5758 5758 5759 5760 5760 5762 5763 5759 5757 5754 5753 5752 5754 5755 5755 5754 5753 5751 5749
5758 5757 5757 5757 5756 5756 5750 5747 5746 5744 5741 5744 5744 5744 5744 5743 5749 5752 5754 5749 5747 5750 5754 5757 5758 5760 5759 5759 5757 5756 5756 5758 5759 5758 5755 5754 5753 5754 5752 5749 5747 5745 5744
5746 5748 5749 5748 5750 5750 5743 5739 5739 5739 5736 5734 5729 5730 5731 5735 5735 5740 5745 5749 5750 5752 5754 5756 5758 5757 5757 5757 5755 5752 5751 5751 5753 5753 5751 5750 5748 5747 5746 5744 5741 5738 5738
5734 5736 5737 5738 5737 5735 5733 5735 5740 5736 5733 5729 5728 5724 5723 5725 5729 5736 5736 5741 5745 5749 5750 5752 5753 5754 5756 5754 5752 5750 5748 5748 5748 5748 5747 5745 5743 5742 5741 5738 5737 5733 5736
5729 5728 5729 5731 5731 5732 5731 5731 5735 5735 5735 5735 5740 5730 5731 5730 5730 5732 5736 5739 5739 5739 5741 5744 5744 5751 5751 5752 5752 5748 5746 5748 5745 5743 5743 5742 5741 5740 5739 5736 5734 5729 5727
5721 5720 5720 5719 5720 5721 5721 5723 5724 5727 5731 5739 5743 5741 5743 5733 5739 5734 5733 5739 5738 5732 5733 5736 5740 5742 5746 5748 5748 5745 5744 5742 5740 5738 5737 5737 5737 5736 5734 5733 5730 5728 5725
5708 5705 5703 5704 5705 5707 5708 5710 5716 5721 5719 5722 5728 5735 5738 5736 5739 5742 5734 5741 5739 5729 5731 5740 5739 5738 5739 5740 5740 5739 5736 5733 5732 5730 5729 5728 5727 5729 5729 5728 5727 5726 5726
5698 5694 5692 5691 5689 5695 5695 5699 5704 5707 5703 5706 5711 5721 5737 5735 5733 5739 5737 5733 5733 5734 5735 5741 5737 5731 5729 5729 5732 5731 5726 5725 5725 5723 5721 5721 5721 5723 5722 5723 5723 5723 5723
5687 5685 5682 5677 5677 5678 5685 5690 5693 5700 5702 5700 5704 5713 5724 5715 5715 5723 5727 5725 5725 5724 5722 5724 5725 5723 5721 5724 5725 5720 5719 5718 5719 5717 5717 5716 5714 5715 5715 5715 5715 5715 5715
5681 5679 5677 5675 5670 5670 5671 5680 5686 5695 5701 5704 5710 5713 5709 5711 5715 5717 5724 5719 5716 5717 5714 5713 5711 5710 5710 5711 5714 5718 5712 5711 5712 5713 5710 5709 5709 5706 5709 5710 5707 5706 5707
5676 5675 5672 5670 5669 5666 5665 5671 5680 5684 5689 5696 5702 5710 5713 5709 5710 5708 5708 5706 5709 5706 5708 5707 5705 5707 5708 5708 5708 5709 5707 5705 5706 5707 5705 5700 5700 5701 5702 5702 5700 5699 5697
5669 5671 5671 5668 5667 5665 5663 5663 5668 5681 5681 5684 5688 5691 5693 5700 5698 5697 5700 5698 5699 5700 5706 5704 5700 5703 5702 5704 5705 5704 5702 5700 5700 5699 5699 5697 5695 5695 5694 5693 5691 5688 5688
5662 5662 5663 5664 5663 5663 5662 5660 5661 5663 5676 5684 5685 5688 5691 5692 5693 5692 5692 5691 5692 5696 5700 5701 5700 5698 5699 5695 5696 5698 5695 5692 5692 5694 5692 5692 5689 5690 5686 5685 5683 5680 5678
5654 5656 5657 5657 5657 5658 5658 5656 5658 5658 5661 5674 5681 5679 5681 5682 5682 5683 5685 5695 5695 5694 5694 5694 5695 5697 5695 5692 5691 5693 5690 5687 5688 5687 5686 5686 5685 5684 5679 5677 5675 5668 5666
5647 5648 5648 5649 5651 5651 5652 5653 5655 5656 5659 5660 5667 5677 5677 5674 5680 5680 5683 5692 5696 5695 5695 5691 5692 5694 5694 5690 5688 5685 5682 5678 5679 5681 5680 5680 5680 5677 5673 5672 5671 5668 5664
5640 5642 5641 5642 5644 5645 5646 5648 5652 5654 5656 5660 5667 5671 5672 5677 5681 5684 5685 5687 5693 5693 5694 5692 5693 5694 5692 5689 5684 5681 5683 5680 5676 5676 5676 5674 5674 5673 5669 5666 5665 5663 5659
5635 5635 5636 5636 5638 5640 5642 5644 5646 5651 5655 5658 5663 5670 5665 5674 5681 5686 5687 5688 5688 5689 5690 5693 5693 5693 5694 5690 5685 5682 5680 5675 5672 5670 5671 5671 5668 5668 5665 5661 5658 5655 5653
5624 5626 5628 5630 5632 5635 5637 5639 5642 5646 5651 5657 5660 5663 5661 5671 5678 5682 5685 5686 5685 5686 5687 5690 5690 5691 5691 5687 5686 5682 5682 5676 5675 5670 5666 5665 5663 5662 5659 5655 5651 5648 5645
5615 5618 5622 5626 5628 5631 5634 5637 5640 5642 5647 5653 5660 5663 5665 5669 5674 5677 5680 5683 5684 5684 5684 5685 5689 5688 5686 5683 5682 5679 5676 5673 5671 5667 5663 5660 5657 5652 5650 5645 5643 5641 5638
5611 5614 5616 5621 5625 5628 5632 5634 5638 5642 5646 5649 5655 5662 5664 5666 5668 5672 5673 5675 5676 5678 5680 5682 5685 5684 5682 5681 5678 5677 5675 5671 5666 5662 5657 5654 5649 5645 5641 5638 5634 5633 5630
5608 5611 5613 5616 5620 5623 5627 5632 5636 5639 5643 5649 5653 5659 5662 5664 5665 5667 5670 5673 5676 5678 5678 5679 5679 5679 5677 5675 5673 5670 5668 5664 5659 5656 5651 5646 5640 5635 5632 5629 5626 5624 5621